Regional Weather Roundup
Issued by NWS

Home | Current Version | Previous Version | Graphics & Text | Print | Product List | Glossary On
Versions: 1 2 3 4 5 6 7 8 9 10 11 12 13 14 15 16 17 18 19 20 21 22 23 24 25 26 27
000
ASUS45 KBOU 221507
RWRCO

WEATHER ROUNDUP FOR COLORADO
NATIONAL WEATHER SERVICE DENVER/BOULDER CO
900 AM MDT FRI SEP 22 2017

NOTE: "FAIR" INDICATES FEW OR NO CLOUDS BELOW 12000 FEET WITH NO
SIGNIFICANT WEATHER AND/OR OBSTRUCTIONS TO VISIBILITY.

COZ001>005-013-030-031-221600-
...NORTHWEST COLORADO...

CITY           SKY/WX    TMP DP  RH WIND       PRES   REMARKS
CRAIG          FAIR      53  35  50 CALM      29.90R
HAYDEN         FAIR      56  32  40 W12       29.90R
MEEKER         FAIR      63  32  31 MISG      29.85S
RABBIT EARS PA PTSUNNY   39  34  81 SW13G33   30.08S
STEAMBOAT SPGS PTSUNNY   53  36  52 E16G23    29.91R
WALDEN         FAIR      57  32  38 SW22G32   29.97R
$$

COZ006>008-011-221600-
...WEST CENTRAL VALLEYS...

CITY           SKY/WX    TMP DP  RH WIND       PRES   REMARKS
GRAND JUNCTION FAIR      69  33  26 S12       29.80R
MONTROSE       FAIR      64  39  39 SE9       29.90R
EAGLE          LGT RAIN  56  42  59 W12       29.95S
RIFLE          LGT RAIN  60  44  55 S21       29.86R
DELTA          FAIR      67  39  35 CALM      29.86R
NUCLA          FAIR      64  30  27 SW18G24   29.92S
$$

COZ017>023-064>068-221600-
...SOUTHWEST COLORADO...

CITY           SKY/WX    TMP DP  RH WIND       PRES   REMARKS
DURANGO        CLOUDY    61  40  45 S10       30.01S
CORTEZ         CLOUDY    65  37  35 S13G31    29.93R
PAGOSA SPRINGS CLOUDY    55  37  50 CALM      30.09R
TELLURIDE      RAIN      49  37  61 S6G32     30.08R
WOLF CREEK PAS CLOUDY    36  34  93 S17G31    30.30S
$$

COZ009-010-012-014-032>034-037-058>063-221600-
...CENTRAL COLORADO...

CITY           SKY/WX    TMP DP  RH WIND       PRES   REMARKS
ASPEN          PTSUNNY   55  34  45 N6        29.97R
BUENA VISTA    PTSUNNY   58  32  36 SE15      30.01S
COPPER MTN     FAIR      46  25  42 S18G32    30.20R
BERTHOUD PASS  FAIR      39  32  75 SW10G37   30.21R
COTTONWOOD PAS CLOUDY    57  30  35 W8G29     30.12R
GUNNISON       FAIR      53  31  42 N3        30.00S
KREMMLING      FAIR      54  27  35 E5        29.96S
LEADVILLE      PTSUNNY   51  26  37 S14       30.08R
SALIDA         PTSUNNY   64  33  31 S8G18     30.07S
SUNLIGHT       PTSUNNY   36  36 100 S16G29    30.13R
WILKERSON PASS FAIR      45  27  49 SW23G40   30.17R
$$

COZ069>075-221600-
...SAN LUIS VALLEY/SANGRE DE CRISTO MOUNTAINS...

CITY           SKY/WX    TMP DP  RH WIND       PRES   REMARKS
ALAMOSA        FAIR      62  38  40 S17       30.04R
DEL NORTE      FAIR      60  33  36 CALM      30.04F
LA VETA PASS   FAIR      50  30  46 S30G54    30.24S
SAGUACHE       FAIR      55  36  47 SE9       30.04F
$$

COZ035-036-038>040-221600-
...NORTHERN COLORADO FRONT RANGE...

CITY           SKY/WX    TMP DP  RH WIND       PRES   REMARKS
DENVER INTL AP FAIR      56  37  49 NE5       29.84R
DMNS CITY PARK   N/A     59  38  44 N8G14     29.84S
AURORA         MOSUNNY   56  38  50 NE5       29.85R
FRONT RANGE AP MOSUNNY   55  39  54 N8        29.86R
ERIE MUNI ARPT FAIR      57  36  45 E3        29.89R
BOULDER MUN AP FAIR      59  36  41 E3        29.84R
CENTENNIAL     FAIR      57  38  48 NW3       29.86R
BROOMFIELD     MOSUNNY   57  37  47 VRB5      29.86R
FORT COLLINS   FAIR      56  38  50 VRB5      29.84R
LONGMONT       FAIR      60  38  44 CALM      29.85R
$$

COZ041-046-047-076>085-087-088-221600-
...PIKES PEAK/PALMER DIVIDE AND SOUTHERN FOOTHILLS...

CITY           SKY/WX    TMP DP  RH WIND       PRES   REMARKS
COLO. SPRINGS  PTSUNNY   72  36  26 S20       29.92R
A. F. ACADEMY  FAIR      69  31  24 S22G30    29.89R
SCHRIEVER AFB  FAIR      70  33  25 SW13G21   29.93R
CHEYENNE MTN   FAIR      67  32  27 SE29G58   29.86R
ELLICOTT         N/A    N/A N/A N/A S7        29.91R
FALCON         FAIR      69  32  25 S26G36    29.96R
FORT CARSON    NOT AVBL
LIMON          FAIR      68  32  26 S6        29.86R
MONUMENT HILL  FAIR      64  32  29 S12       29.96R
CANON CITY     SUNNY     68  39  34 CALM      29.86R
WALSENBURG     NOT AVBL
TRINIDAD       FAIR      73  35  25 SW24G33   29.92R
$$

COZ042>045-048>051-090-091-221600-
...NORTHEAST COLORADO...

CITY           SKY/WX    TMP DP  RH WIND       PRES   REMARKS
GREELEY ARPT   FAIR      55  41  59 E8        29.83S
AKRON          FAIR      59  38  45 NE7       29.81R
BURLINGTON     FAIR      72  46  39 S17       29.83R
WRAY           FAIR      72  32  23 SW8       29.78R
YUMA           FAIR      59  39  47 N5        29.81R
STERLING       FAIR      54  43  66 NE5       29.81R
HOLYOKE        FAIR      61  43  51 N9        29.80R
FORT MORGAN    FAIR      58  38  46 N6        29.84R
$$

COZ086-089-092>099-221600-
...SOUTHEAST COLORADO...

CITY           SKY/WX    TMP DP  RH WIND       PRES   REMARKS
PUEBLO         FAIR      73  36  25 NE3       29.82R
LA JUNTA       FAIR      78  42  27 S13       29.82R
LAMAR          FAIR      79  45  29 S21G31    29.80R
SPRINGFIELD      N/A     70  55  59 S16       29.90R
$$




USA.gov is the U.S. government's official web portal to all federal, state and local government web resources and services.